,,PA_Meas_PMT16A,,PR_Meas_QMR101_102,,RH_Meas_QMH101,,SR_Meas_QMS101,,TA_Meas_QMH101,,GenWind,,GenWind,
time,status,PA,status,PR,status,RH,status,SR,status,TA,status,DirAvg,status,SpdAvg,
2016-04-16, 06:52:04,VALID,917.097,VALID,0,INVALID,110.029,VALID,82.2999,VALID,21.6924,VALID,107,VALID,0,
2016-04-16, 06:53:04,VALID,917.104,VALID,0,INVALID,109.991,VALID,84.3413,VALID,21.79,VALID,107,VALID,0,
2016-04-16, 06:54:04,VALID,917.106,VALID,0,INVALID,109.945,VALID,86.2752,VALID,21.9087,VALID,107,VALID,0,
2016-04-16, 06:55:04,VALID,917.102,VALID,0,INVALID,110.006,VALID,87.9943,VALID,21.9461,VALID,107,VALID,0,
2016-04-16, 06:56:04,VALID,917.073,VALID,0,INVALID,110.044,VALID,90.0357,VALID,22.0437,VALID,107,VALID,0,
2016-04-16, 06:57:04,VALID,917.119,VALID,0,INVALID,110.09,VALID,92.1845,VALID,22.1217,VALID,107,VALID,0,
2016-04-16, 06:58:04,VALID,917.135,VALID,0,INVALID,110.189,VALID,93.4738,VALID,22.2193,VALID,107,VALID,0,
2016-04-16, 06:59:04,VALID,917.129,VALID,0,INVALID,110.402,VALID,93.6887,VALID,22.2193,VALID,107,VALID,0,
2016-04-16, 15:17:04,VALID,914.413,VALID,0,INVALID,110.524,VALID,113.995,VALID,23.3461,INVALID,360,INVALID,0,
2016-04-16, 15:18:04,VALID,914.442,VALID,0,INVALID,110.852,VALID,114.425,VALID,23.2094,VALID,86,VALID,0,
2016-04-16, 15:19:04,VALID,914.518,VALID,0,INVALID,110.783,VALID,113.888,VALID,23.1899,VALID,82,VALID,0,
2016-04-16, 15:20:04,VALID,914.568,VALID,0,INVALID,110.707,VALID,111.739,VALID,23.1314,VALID,71,VALID,0.838672,
2016-04-16, 15:24:04,VALID,914.643,VALID,0,INVALID,110.646,VALID,113.243,VALID,23.0533,VALID,67,VALID,1.94805,
2016-04-16, 15:25:04,VALID,914.625,VALID,0,INVALID,110.509,VALID,115.607,VALID,23.0143,VALID,73,VALID,0.969922,
2016-04-16, 15:26:04,VALID,914.57,VALID,0,INVALID,110.486,VALID,116.466,VALID,23.0924,VALID,123,VALID,0.709375,
2016-04-16, 15:27:04,VALID,914.513,VALID,0,INVALID,110.555,VALID,116.251,VALID,23.1314,VALID,123,VALID,0,
2016-04-16, 15:28:04,VALID,914.499,VALID,0,INVALID,110.639,VALID,115.714,VALID,23.1119,VALID,123,VALID,0,
2016-04-16, 15:29:04,VALID,914.498,VALID,0,INVALID,110.669,VALID,114.21,VALID,23.0941,VALID,123,VALID,0,
2016-04-16, 15:30:04,VALID,914.462,VALID,0,INVALID,110.593,VALID,113.458,VALID,23.1136,VALID,123,VALID,0,
2016-04-16, 15:31:04,VALID,914.48,VALID,0,INVALID,110.593,VALID,113.995,VALID,23.1527,VALID,123,VALID,0,
2016-04-16, 15:32:04,VALID,914.494,VALID,0,INVALID,110.616,VALID,115.392,VALID,23.1917,VALID,123,VALID,0,
2016-04-16, 15:33:04,VALID,914.52,VALID,0,INVALID,110.593,VALID,117.541,VALID,23.229,VALID,123,VALID,0,
2016-04-16, 15:34:04,VALID,914.594,VALID,0,INVALID,110.585,VALID,118.078,VALID,23.3265,VALID,123,VALID,0,
2016-04-16, 15:35:04,VALID,914.626,VALID,0,INVALID,110.578,VALID,117.003,VALID,23.4454,VALID,123,VALID,0,
2016-04-16, 15:36:04,VALID,914.609,VALID,0,INVALID,110.532,VALID,115.714,VALID,23.5626,VALID,123,VALID,0,
2016-04-16, 15:37:04,VALID,914.596,VALID,0,INVALID,110.646,VALID,115.499,VALID,23.543,VALID,123,VALID,0,
2016-04-16, 15:38:04,VALID,914.553,VALID,0,INVALID,110.669,VALID,116.144,VALID,23.5821,VALID,123,VALID,0,
2016-04-16, 15:39:04,VALID,914.552,VALID,0,INVALID,110.692,VALID,117.648,VALID,23.5821,VALID,123,VALID,0,
2016-04-16, 15:40:04,VALID,914.534,VALID,0,INVALID,110.7,VALID,117.863,VALID,23.5803,VALID,123,VALID,0,
2016-04-16, 15:41:04,VALID,914.507,VALID,0,INVALID,110.639,VALID,117.218,VALID,23.6602,VALID,127,VALID,0,
2016-04-16, 15:42:04,VALID,914.529,VALID,0,INVALID,110.585,VALID,116.681,VALID,23.6974,VALID,142,VALID,0,
2016-04-16, 15:43:04,VALID,914.5,VALID,0,INVALID,110.608,VALID,115.607,VALID,23.7169,VALID,142,VALID,0,
2016-04-16, 15:44:04,VALID,914.518,VALID,0,INVALID,110.494,VALID,114.747,VALID,23.795,VALID,142,VALID,0,
2016-04-16, 15:45:04,VALID,914.507,VALID,0,INVALID,110.479,VALID,115.069,VALID,23.9139,VALID,140,VALID,0,
2016-04-16, 15:46:04,VALID,914.499,VALID,0,INVALID,110.593,VALID,115.607,VALID,23.9335,VALID,76,VALID,0,
2016-04-16, 15:47:04,VALID,914.47,VALID,0,INVALID,110.623,VALID,116.789,VALID,23.953,VALID,74,VALID,0,
2016-04-16, 15:48:04,VALID,914.457,VALID,0,INVALID,110.471,VALID,117.97,VALID,24.1287,VALID,45,VALID,0,
2016-04-16, 15:49:04,VALID,914.413,VALID,0,INVALID,110.745,VALID,120.871,VALID,24.0701,VALID,20,VALID,0,
2016-04-16, 15:50:04,VALID,914.359,VALID,0,INVALID,110.555,VALID,123.45,VALID,24.2458,VALID,21,VALID,0,
2016-04-16, 15:51:04,VALID,914.327,VALID,0,INVALID,110.738,VALID,126.351,VALID,24.244,VALID,14,VALID,0,
2016-04-16, 15:52:04,VALID,914.293,VALID,0,INVALID,110.662,VALID,127.21,VALID,24.3435,VALID,33,VALID,0,
2016-04-16, 15:53:04,VALID,914.278,VALID,0,INVALID,110.837,VALID,124.739,VALID,24.2849,VALID,22,VALID,1.04922,
2016-04-16, 15:54:04,VALID,914.317,VALID,0,INVALID,110.669,VALID,132.367,VALID,24.3239,VALID,31,VALID,1.38828,
2016-04-16, 15:55:04,VALID,914.338,VALID,0,INVALID,110.654,VALID,143.971,VALID,24.2654,VALID,17,VALID,1.35039,
2016-04-16, 15:56:04,VALID,914.373,VALID,0,INVALID,110.593,VALID,152.244,VALID,24.3221,VALID,17,VALID,1.23438,
2016-04-16, 15:57:04,VALID,914.36,VALID,0,INVALID,110.7,VALID,158.153,VALID,24.2635,VALID,38,VALID,1.29609,
2016-04-16, 15:58:04,VALID,914.369,VALID,0,INVALID,110.608,VALID,161.054,VALID,24.244,VALID,39,VALID,1.25039,
2016-04-16, 15:59:04,VALID,914.369,VALID,0,INVALID,110.54,VALID,160.302,VALID,24.2849,VALID,35,VALID,1.22031,
2016-04-16, 16:00:04,VALID,914.368,VALID,0,INVALID,110.532,VALID,157.294,VALID,24.3435,VALID,21,VALID,0.337891,
2016-04-16, 16:01:04,VALID,914.35,VALID,0,INVALID,110.654,VALID,152.244,VALID,24.363,VALID,21,VALID,0,
2016-04-16, 16:02:04,VALID,914.39,VALID,0,INVALID,110.616,VALID,142.252,VALID,24.3806,VALID,25,VALID,0,
2016-04-16, 16:03:04,VALID,914.448,VALID,0,INVALID,110.639,VALID,138.599,VALID,24.4783,VALID,29,VALID,0,
2016-04-16, 16:04:04,VALID,914.498,VALID,0,INVALID,110.692,VALID,136.343,VALID,24.5582,VALID,29,VALID,0,
2016-04-16, 16:05:04,VALID,914.589,VALID,0,INVALID,110.677,VALID,130.648,VALID,24.5564,VALID,38,VALID,0,
2016-04-16, 16:06:04,VALID,914.645,VALID,0,INVALID,110.677,VALID,120.764,VALID,24.6363,VALID,39,VALID,0,
